Torna al catalogo

CZ-4C R/B

AttivoSSO
NORAD 59729·ROCKET BODY·🇨🇳 China

Lanciato May 11, 2024 da Jiuquan Satellite Launch Center

Loading…

Prossimi Passaggi (prossime 24 ore)

TLE

AggiornatoSource: Space-Track

Epoca: Sep 14, 2026, 13:27 UTC

1 59729U 24089B   26257.56060960  .00006035  00000-0  17682-3 0  9990
2 59729  97.6892 303.6332 0070856 288.6882  70.6677 15.33120676130341

Traccia CZ-4C R/B in tempo reale con AllMySat

Download on the App Store